Wetterdaten Herbst 2005

Datum T max T min Regen
01.09.2005 29.6 °C 19.2 °C 0 mm
02.09.2005 27.8 °C 19.4 °C 0 mm
03.09.2005 27.8 °C 18.8 °C 0 mm
04.09.2005 27.9 °C 16.1 °C 0 mm
05.09.2005 28.5 °C 14.2 °C 0 mm
06.09.2005 29.2 °C 16.8 °C 0 mm
07.09.2005 30 °C 16.4 °C 0 mm
08.09.2005 30.3 °C 16.9 °C 0 mm
09.09.2005 28.1 °C 18.4 °C 0 mm
10.09.2005 22.7 °C 19.1 °C 0 mm
11.09.2005 19.9 °C 13.9 °C 7.6 mm
12.09.2005 23.9 °C 16.2 °C 1.4 mm
13.09.2005 19.4 °C 15.9 °C 2.9 mm
14.09.2005 20.9 °C 16.2 °C 0 mm
15.09.2005 20.6 °C 16.5 °C 0.4 mm
16.09.2005 20.2 °C 10.5 °C 7.9 mm
17.09.2005 14.8 °C 8.5 °C 0 mm
18.09.2005 18.1 °C 6.3 °C 0 mm
19.09.2005 18.9 °C 7 °C 0 mm
20.09.2005 19.4 °C 6.4 °C 0 mm
21.09.2005 20.4 °C 6.9 °C 0 mm
22.09.2005 21.7 °C 8.6 °C 0 mm
23.09.2005 19.1 °C 10.5 °C 0 mm
24.09.2005 24.4 °C 11.6 °C 0 mm
25.09.2005 25.2 °C 13 °C 0 mm
26.09.2005 21 °C 14.4 °C 0 mm
27.09.2005 20.4 °C 14.9 °C 0 mm
28.09.2005 17.9 °C 13.7 °C 0 mm
29.09.2005 15.5 °C 10.7 °C 7.2 mm
30.09.2005 18.1 °C 7.1 °C 0 mm
01.10.2005 13.7 °C 11 °C 20.9 mm
02.10.2005 11.6 °C 9.9 °C 4 mm
03.10.2005 11.4 °C 9.4 °C 4.7 mm
04.10.2005 15.8 °C 11.2 °C 1.1 mm
05.10.2005 19.5 °C 14.8 °C 0 mm
06.10.2005 16.6 °C 12.2 °C 0 mm
07.10.2005 20.7 °C 13 °C 0 mm
08.10.2005 18.1 °C 10 °C 0 mm
09.10.2005 21.1 °C 9.4 °C 0 mm
10.10.2005 20.3 °C 9 °C 0 mm
11.10.2005 19.5 °C 7.8 °C 0 mm
12.10.2005 21 °C 8.7 °C 0 mm
13.10.2005 19.3 °C 7.4 °C 0 mm
14.10.2005 19.1 °C 6.6 °C 0 mm
15.10.2005 19 °C 6.5 °C 0 mm
16.10.2005 18.1 °C 6.5 °C 0 mm
17.10.2005 14.9 °C 4.2 °C 0 mm
18.10.2005 14.8 °C 3.8 °C 0 mm
19.10.2005 11.6 °C 3.9 °C 0.4 mm
20.10.2005 17.5 °C 7.2 °C 0 mm
21.10.2005 20.6 °C 11 °C 0 mm
22.10.2005 21.5 °C 14.3 °C 1.4 mm
23.10.2005 17.4 °C 10.7 °C 0.4 mm
24.10.2005 18.3 °C 7.8 °C 0 mm
25.10.2005 20.9 °C 11.6 °C 0 mm
26.10.2005 20.6 °C 14 °C 0.4 mm
27.10.2005 23.1 °C 10.6 °C 0 mm
28.10.2005 22.8 °C 9.7 °C 0 mm
29.10.2005 22 °C 8.1 °C 0 mm
30.10.2005 21 °C 8.7 °C 0 mm
31.10.2005 20.2 °C 7.7 °C 0 mm
01.11.2005 17.5 °C 10.5 °C 5 mm
02.11.2005 14.3 °C 8.2 °C 0.4 mm
03.11.2005 21.4 °C 11.6 °C 5.4 mm
04.11.2005 17.5 °C 10.3 °C 2.2 mm
05.11.2005 13.5 °C 8 °C 7.6 mm
06.11.2005 15.2 °C 5.5 °C 0 mm
07.11.2005 13.7 °C 4.1 °C 0 mm
08.11.2005 15.9 °C 3.9 °C 0 mm
09.11.2005 14.3 °C 3.9 °C 0 mm
10.11.2005 10.8 °C 4.3 °C 0 mm
11.11.2005 13.3 °C 3.7 °C 0 mm
12.11.2005 15.1 °C 2.7 °C 0 mm
13.11.2005 12.2 °C 3.3 °C 0 mm
14.11.2005 9 °C 3.6 °C 0 mm
15.11.2005 6.5 °C 2.3 °C 0 mm
16.11.2005 6.9 °C 3.2 °C 1.1 mm
17.11.2005 4.6 °C 1.8 °C 0 mm
18.11.2005 4.7 °C 0.1 °C 6.8 mm
19.11.2005 2.5 °C -1.9 °C 0.4 mm
20.11.2005 2.7 °C -3.8 °C 0 mm
21.11.2005 2.8 °C -0.4 °C 5.8 mm
22.11.2005 3 °C -1.3 °C 0 mm
23.11.2005 3.1 °C 0.3 °C 0 mm
24.11.2005 0.5 °C -1.3 °C 0 mm
25.11.2005 2.4 °C -1.4 °C 0 mm
26.11.2005 4.6 °C -3.2 °C 0 mm
27.11.2005 3.3 °C -2.1 °C 0 mm
28.11.2005 4 °C 0.3 °C 0 mm
29.11.2005 4.7 °C 1.9 °C 0.7 mm
30.11.2005 3.9 °C 0.3 °C 0 mm
*) Messwert für diesen Zeitpunkt noch nicht verfügbar
 Hinweis zur Datenqualität
∅ Temperatur

12 °C

Abweichung vom Mittel

+1.8 °C

Niederschlag

95.8 mm

Abweichung vom Mittel

63 %

30.3 °C

Lufttemperatur
08.09.2005

1033 hPa

Luftdruck
22.11.2005

28 km/h

Windböen
25.11.2005

95.760025 mm

Niederschlag
 

-3.8 °C

Lufttemperatur
20.11.2005

*) °C

Bodentemperatur 5cm
01.01.1970

987 hPa

Luftdruck
25.11.2005
*) Messwert für diesen Zeitpunkt noch nicht verfügbar
 Hinweis zur Datenqualität